LXP183 SCSE-SCAR

Flight info

Callsign LXP183
Flight time 1h 50m
Altitude 38000
Route VUGUS UQ802 SIRAM SIRAM3B
Aircraft A20N/M-SDE2E3FGHIRWXY/LB1

Departure

Time 2026-04-17 04:44
Airport La Florida Airport (SCSE)

Arrival

Time 2026-04-17 06:34
Airport Chacalluta International Airport (SCAR)
Time Latitude Longitude Altitude Speed Heading
2026-04-17 04:10 -29.91616 -71.20390 487 ft 0 kts 207°
2026-04-17 04:38 -29.91621 -71.20389 487 ft 1 kts 162°
2026-04-17 04:39 -29.91623 -71.20374 487 ft 3 kts 71°
2026-04-17 04:39 -29.91609 -71.20347 487 ft 4 kts 60°
2026-04-17 04:39 -29.91607 -71.20299 487 ft 7 kts 112°
2026-04-17 04:39 -29.91639 -71.20244 487 ft 8 kts 117°
2026-04-17 04:40 -29.91658 -71.20172 487 ft 10 kts 83°
2026-04-17 04:40 -29.91609 -71.20116 487 ft 11 kts 27°
2026-04-17 04:40 -29.91582 -71.20044 487 ft 11 kts 111°
2026-04-17 04:40 -29.91618 -71.19957 487 ft 12 kts 116°
2026-04-17 04:41 -29.91657 -71.19866 487 ft 13 kts 115°
2026-04-17 04:41 -29.91699 -71.19771 487 ft 13 kts 114°
2026-04-17 04:41 -29.91741 -71.19672 487 ft 14 kts 115°
2026-04-17 04:41 -29.91786 -71.19567 487 ft 14 kts 117°
2026-04-17 04:42 -29.91830 -71.19460 487 ft 14 kts 114°
2026-04-17 04:42 -29.91875 -71.19350 487 ft 15 kts 116°
2026-04-17 04:42 -29.91923 -71.19239 487 ft 15 kts 116°
2026-04-17 04:42 -29.91976 -71.19135 487 ft 14 kts 135°
2026-04-17 04:43 -29.92016 -71.19074 487 ft 5 kts 80°
2026-04-17 04:43 -29.91991 -71.19072 487 ft 4 kts 300°
2026-04-17 04:43 -29.91989 -71.19078 487 ft 1 kts 296°
2026-04-17 04:43 -29.91901 -71.19292 487 ft 72 kts 296°
2026-04-17 04:44 -29.91555 -71.20106 489 ft 148 kts 295°
2026-04-17 04:44 -29.91061 -71.21260 1002 ft 164 kts 297°
2026-04-17 04:44 -29.90563 -71.22411 1814 ft 165 kts 298°
2026-04-17 04:44 -29.90053 -71.23572 2564 ft 172 kts 297°
2026-04-17 04:45 -29.89539 -71.24763 3036 ft 188 kts 298°
2026-04-17 04:45 -29.88928 -71.26164 3580 ft 205 kts 297°
2026-04-17 04:45 -29.88246 -71.27715 4082 ft 229 kts 298°
2026-04-17 04:45 -29.87495 -71.29424 4660 ft 250 kts 297°
2026-04-17 04:46 -29.86695 -71.31272 5275 ft 268 kts 298°
2026-04-17 04:46 -29.85855 -71.33223 6074 ft 278 kts 298°
2026-04-17 04:46 -29.84830 -71.35034 6989 ft 276 kts 319°
2026-04-17 04:46 -29.83151 -71.35989 7895 ft 271 kts 352°
2026-04-17 04:47 -29.81296 -71.35830 8789 ft 271 kts 14°
2026-04-17 04:47 -29.79508 -71.35204 9591 ft 274 kts 15°
2026-04-17 04:47 -29.77669 -71.34590 10332 ft 278 kts 14°
2026-04-17 04:47 -29.75754 -71.33983 10784 ft 293 kts 13°
2026-04-17 04:48 -29.73734 -71.33365 11398 ft 302 kts 12°
2026-04-17 04:48 -29.71712 -71.32757 12179 ft 304 kts 12°
2026-04-17 04:48 -29.69656 -71.32143 12914 ft 308 kts 12°
2026-04-17 04:48 -29.67581 -71.31529 13636 ft 312 kts 11°
2026-04-17 04:49 -29.65443 -71.30900 14314 ft 317 kts 11°
2026-04-17 04:49 -29.63309 -71.30273 14948 ft 323 kts 11°
2026-04-17 04:49 -29.61098 -71.29628 15568 ft 330 kts 11°
2026-04-17 04:49 -29.58866 -71.28976 16172 ft 336 kts 10°
2026-04-17 04:50 -29.56571 -71.28308 16761 ft 342 kts 10°
2026-04-17 04:50 -29.54270 -71.27634 17398 ft 345 kts
2026-04-17 04:50 -29.51930 -71.26953 18016 ft 349 kts
2026-04-17 04:50 -29.49534 -71.26253 18643 ft 353 kts
2026-04-17 04:51 -29.47161 -71.25564 19235 ft 358 kts
2026-04-17 04:51 -29.44725 -71.24856 19817 ft 363 kts
2026-04-17 04:51 -29.42269 -71.24142 20428 ft 367 kts
2026-04-17 04:51 -29.39787 -71.23420 21011 ft 371 kts
2026-04-17 04:52 -29.37256 -71.22684 21600 ft 375 kts
2026-04-17 04:52 -29.34732 -71.21952 22159 ft 380 kts
2026-04-17 04:52 -29.32131 -71.21197 22729 ft 385 kts
2026-04-17 04:52 -29.29534 -71.20447 23261 ft 390 kts
2026-04-17 04:53 -29.26864 -71.19676 23861 ft 394 kts
2026-04-17 04:53 -29.24214 -71.18906 24445 ft 397 kts
2026-04-17 04:53 -29.21527 -71.18129 25007 ft 401 kts
2026-04-17 04:55 -29.02002 -71.12485 28594 ft 424 kts
2026-04-17 04:55 -28.99151 -71.11661 29027 ft 427 kts
2026-04-17 04:55 -28.96241 -71.10822 29448 ft 430 kts
2026-04-17 04:56 -28.93337 -71.09987 29839 ft 433 kts
2026-04-17 04:56 -28.90415 -71.09145 30272 ft 434 kts
2026-04-17 04:56 -28.87466 -71.08296 30633 ft 437 kts
2026-04-17 04:56 -28.84538 -71.07456 30986 ft 439 kts
2026-04-17 04:57 -28.81547 -71.06599 31362 ft 441 kts
2026-04-17 04:57 -28.78587 -71.05750 31699 ft 443 kts
2026-04-17 04:57 -28.75555 -71.04879 32031 ft 445 kts
2026-04-17 04:57 -28.72568 -71.04022 32336 ft 447 kts
2026-04-17 04:58 -28.69547 -71.03155 32606 ft 450 kts
2026-04-17 04:58 -28.66503 -71.02281 32952 ft 451 kts
2026-04-17 04:58 -28.63449 -71.01405 33367 ft 450 kts
2026-04-17 04:58 -28.60418 -71.00536 33791 ft 448 kts
2026-04-17 04:59 -28.57432 -70.99679 34219 ft 446 kts
2026-04-17 04:59 -28.54424 -70.98819 34607 ft 446 kts
2026-04-17 04:59 -28.51403 -70.97957 34982 ft 445 kts
2026-04-17 04:59 -28.48412 -70.97100 35372 ft 443 kts
2026-04-17 05:00 -28.45444 -70.96252 35757 ft 441 kts
2026-04-17 05:00 -28.42430 -70.95389 36137 ft 439 kts
2026-04-17 05:00 -28.39474 -70.94544 36467 ft 438 kts
2026-04-17 05:00 -28.36526 -70.93701 36722 ft 439 kts
2026-04-17 05:01 -28.33565 -70.92859 36962 ft 439 kts
2026-04-17 05:01 -28.30609 -70.92017 37199 ft 440 kts
2026-04-17 05:01 -28.27638 -70.91293 37413 ft 438 kts
2026-04-17 05:01 -28.24632 -70.90776 37633 ft 436 kts
2026-04-17 05:02 -28.21626 -70.90435 37831 ft 435 kts 360°
2026-04-17 05:02 -28.18584 -70.90118 38000 ft 436 kts 360°
2026-04-17 05:02 -28.12541 -70.89487 38031 ft 436 kts 360°
2026-04-17 05:03 -28.06468 -70.88844 38040 ft 435 kts 360°
2026-04-17 05:03 -28.00474 -70.88209 38050 ft 434 kts 360°
2026-04-17 05:04 -27.94475 -70.87573 38045 ft 434 kts 360°
2026-04-17 05:04 -27.88455 -70.86938 38049 ft 434 kts
2026-04-17 05:05 -27.82440 -70.86300 38043 ft 434 kts
2026-04-17 05:05 -27.76398 -70.85661 38040 ft 434 kts
2026-04-17 05:06 -27.70389 -70.85027 38028 ft 434 kts
2026-04-17 05:06 -27.64387 -70.84392 38043 ft 433 kts
2026-04-17 05:07 -27.58392 -70.83759 38036 ft 432 kts
2026-04-17 05:07 -27.52387 -70.83128 38032 ft 433 kts
2026-04-17 05:08 -27.46363 -70.82493 38040 ft 433 kts
2026-04-17 05:08 -27.40371 -70.81863 38036 ft 433 kts
2026-04-17 05:09 -27.34370 -70.81233 38044 ft 433 kts
2026-04-17 05:09 -27.28352 -70.80601 38047 ft 432 kts
2026-04-17 05:10 -27.22355 -70.79972 38046 ft 431 kts
2026-04-17 05:10 -27.16385 -70.79349 38041 ft 432 kts
2026-04-17 05:11 -27.10390 -70.78721 38042 ft 432 kts
2026-04-17 05:11 -27.04407 -70.78093 38042 ft 431 kts
2026-04-17 05:12 -26.98425 -70.77468 38040 ft 431 kts
2026-04-17 05:12 -26.92442 -70.76842 38029 ft 432 kts
2026-04-17 05:13 -26.86448 -70.76215 38023 ft 432 kts
2026-04-17 05:13 -26.80475 -70.75591 38010 ft 432 kts
2026-04-17 05:14 -26.74483 -70.74965 38019 ft 433 kts
2026-04-17 05:14 -26.68442 -70.74336 38016 ft 433 kts
2026-04-17 05:15 -26.62465 -70.73433 38010 ft 436 kts
2026-04-17 05:15 -26.56485 -70.72408 38019 ft 434 kts
2026-04-17 05:16 -26.50509 -70.71384 38021 ft 434 kts
2026-04-17 05:16 -26.44537 -70.70409 38021 ft 433 kts
2026-04-17 05:17 -26.38551 -70.69851 38016 ft 432 kts 359°
2026-04-17 05:17 -26.32531 -70.69331 38024 ft 432 kts 359°
2026-04-17 05:18 -26.26533 -70.68806 38023 ft 432 kts 359°
2026-04-17 05:18 -26.20538 -70.68282 38020 ft 432 kts 359°
2026-04-17 05:19 -26.14550 -70.67755 38018 ft 432 kts 359°
2026-04-17 05:19 -26.08551 -70.67230 38022 ft 432 kts 359°
2026-04-17 05:20 -26.02542 -70.66703 38022 ft 433 kts 358°
2026-04-17 05:20 -25.96524 -70.66175 38028 ft 432 kts 358°
2026-04-17 05:21 -25.90544 -70.65653 38027 ft 431 kts 358°
2026-04-17 05:21 -25.84549 -70.65127 38034 ft 430 kts 358°
2026-04-17 05:22 -25.78596 -70.64606 38031 ft 429 kts 358°
2026-04-17 05:22 -25.72636 -70.64083 38034 ft 429 kts 358°
2026-04-17 05:23 -25.66715 -70.63563 38040 ft 427 kts 358°
2026-04-17 05:23 -25.60744 -70.63044 38039 ft 429 kts 358°
2026-04-17 05:24 -25.54802 -70.62521 38040 ft 429 kts 357°
2026-04-17 05:24 -25.48866 -70.62001 38041 ft 426 kts 357°
2026-04-17 05:25 -25.42936 -70.61487 38042 ft 426 kts 358°
2026-04-17 05:25 -25.37006 -70.60983 38031 ft 425 kts 357°
2026-04-17 05:26 -25.31111 -70.60483 38030 ft 424 kts 357°
2026-04-17 05:26 -25.25227 -70.59977 38023 ft 424 kts 357°
2026-04-17 05:27 -25.19375 -70.59473 38019 ft 423 kts 357°
2026-04-17 05:27 -25.13490 -70.58965 38023 ft 421 kts 357°
2026-04-17 05:28 -25.07670 -70.58463 38025 ft 422 kts 356°
2026-04-17 05:28 -25.01794 -70.57958 38024 ft 419 kts 356°
2026-04-17 05:29 -24.96015 -70.57456 38036 ft 418 kts 356°
2026-04-17 05:29 -24.90188 -70.56953 38058 ft 418 kts 356°
2026-04-17 05:30 -24.84381 -70.56451 38091 ft 419 kts 356°
2026-04-17 05:30 -24.78578 -70.56099 38131 ft 414 kts 352°
2026-04-17 05:31 -24.72805 -70.56136 38159 ft 413 kts 351°
2026-04-17 05:31 -24.67079 -70.56175 38160 ft 410 kts 352°
2026-04-17 05:32 -24.61368 -70.56212 38148 ft 411 kts 352°
2026-04-17 05:32 -24.55637 -70.56247 38133 ft 411 kts 352°
2026-04-17 05:33 -24.49882 -70.56282 38126 ft 412 kts 352°
2026-04-17 05:33 -24.44155 -70.56313 38108 ft 412 kts 351°
2026-04-17 05:34 -24.38437 -70.56347 38084 ft 411 kts 351°
2026-04-17 05:34 -24.32712 -70.56377 38071 ft 409 kts 351°
2026-04-17 05:35 -24.27025 -70.56406 38062 ft 409 kts 351°
2026-04-17 05:35 -24.21326 -70.56440 38042 ft 409 kts 351°
2026-04-17 05:36 -24.15620 -70.56485 38038 ft 408 kts 351°
2026-04-17 05:36 -24.09918 -70.56529 38039 ft 409 kts 351°
2026-04-17 05:37 -24.04208 -70.56562 38031 ft 410 kts 351°
2026-04-17 05:37 -23.98523 -70.56597 38023 ft 409 kts 351°
2026-04-17 05:38 -23.92838 -70.56628 38013 ft 409 kts 351°
2026-04-17 05:38 -23.87143 -70.56655 38012 ft 408 kts 351°
2026-04-17 05:39 -23.81474 -70.56681 37997 ft 408 kts 351°
2026-04-17 05:39 -23.75763 -70.56693 37995 ft 410 kts 351°
2026-04-17 05:40 -23.70071 -70.56673 38000 ft 410 kts 351°
2026-04-17 05:40 -23.64414 -70.56649 37992 ft 408 kts 351°
2026-04-17 05:41 -23.58657 -70.56625 38003 ft 408 kts 351°
2026-04-17 05:41 -23.52979 -70.56598 38012 ft 408 kts 351°
2026-04-17 05:42 -23.47320 -70.56576 38002 ft 407 kts 351°
2026-04-17 05:42 -23.41631 -70.56550 38012 ft 408 kts 351°
2026-04-17 05:43 -23.35988 -70.56528 38015 ft 407 kts 351°
2026-04-17 05:43 -23.30298 -70.56505 38008 ft 408 kts 351°
2026-04-17 05:44 -23.24625 -70.56478 38013 ft 408 kts 351°
2026-04-17 05:44 -23.18954 -70.56455 38011 ft 407 kts 351°
2026-04-17 05:45 -23.13285 -70.56427 38010 ft 406 kts 351°
2026-04-17 05:45 -23.07629 -70.56402 38005 ft 408 kts 351°
2026-04-17 05:46 -23.01958 -70.56373 37990 ft 407 kts 351°
2026-04-17 05:46 -22.96288 -70.56343 37994 ft 408 kts 351°
2026-04-17 05:47 -22.90574 -70.56315 37996 ft 408 kts 351°
2026-04-17 05:47 -22.84900 -70.56256 37999 ft 409 kts 352°
2026-04-17 05:48 -22.79187 -70.56149 37993 ft 409 kts 352°
2026-04-17 05:48 -22.73499 -70.56037 37996 ft 409 kts 352°
2026-04-17 05:49 -22.67830 -70.55930 38001 ft 408 kts 352°
2026-04-17 05:49 -22.62147 -70.55821 38004 ft 407 kts 352°
2026-04-17 05:50 -22.56469 -70.55712 38006 ft 408 kts 352°
2026-04-17 05:50 -22.50749 -70.55603 38012 ft 408 kts 352°
2026-04-17 05:51 -22.45080 -70.55496 38015 ft 409 kts 352°
2026-04-17 05:51 -22.39366 -70.55385 38019 ft 409 kts 352°
2026-04-17 05:52 -22.33702 -70.55279 38017 ft 409 kts 352°
2026-04-17 05:52 -22.27992 -70.55168 38019 ft 408 kts 352°
2026-04-17 05:53 -22.22348 -70.55060 38015 ft 408 kts 352°
2026-04-17 05:53 -22.16653 -70.54953 38016 ft 408 kts 352°
2026-04-17 05:54 -22.10963 -70.54843 38018 ft 409 kts 352°
2026-04-17 05:54 -22.05262 -70.54731 38018 ft 408 kts 352°
2026-04-17 05:55 -21.99562 -70.54620 38019 ft 409 kts 352°
2026-04-17 05:55 -21.93854 -70.54504 38014 ft 408 kts 352°
2026-04-17 05:56 -21.88154 -70.54401 38018 ft 410 kts 351°
2026-04-17 05:56 -21.82481 -70.54376 38021 ft 409 kts 351°
2026-04-17 05:57 -21.76732 -70.54355 38017 ft 411 kts 351°
2026-04-17 05:57 -21.71047 -70.54325 38019 ft 410 kts 351°
2026-04-17 05:58 -21.65344 -70.54295 38015 ft 410 kts 351°
2026-04-17 05:59 -21.56742 -70.54243 38017 ft 409 kts 351°
2026-04-17 05:59 -21.51073 -70.54208 38014 ft 410 kts 351°
2026-04-17 06:00 -21.45316 -70.54170 38013 ft 411 kts 351°
2026-04-17 06:00 -21.39585 -70.54131 38015 ft 412 kts 351°
2026-04-17 06:01 -21.33878 -70.54099 38014 ft 409 kts 351°
2026-04-17 06:01 -21.28136 -70.54080 38008 ft 410 kts 351°
2026-04-17 06:02 -21.22430 -70.54055 38014 ft 409 kts 351°
2026-04-17 06:02 -21.16696 -70.54027 38014 ft 411 kts 351°
2026-04-17 06:03 -21.11003 -70.53995 38010 ft 411 kts 351°
2026-04-17 06:03 -21.05247 -70.53960 38020 ft 412 kts 351°
2026-04-17 06:04 -20.99517 -70.53928 38022 ft 413 kts 351°
2026-04-17 06:04 -20.93748 -70.53896 38025 ft 413 kts 351°
2026-04-17 06:05 -20.88105 -70.53861 38029 ft 413 kts 351°
2026-04-17 06:05 -20.82343 -70.53823 38028 ft 414 kts 352°
2026-04-17 06:06 -20.76609 -70.53784 38026 ft 412 kts 351°
2026-04-17 06:06 -20.70832 -70.53745 38028 ft 413 kts 352°
2026-04-17 06:07 -20.65071 -70.53709 38024 ft 414 kts 352°
2026-04-17 06:07 -20.62168 -70.53694 37886 ft 415 kts 352°
2026-04-17 06:07 -20.59322 -70.53681 37520 ft 412 kts 352°
2026-04-17 06:07 -20.56446 -70.53670 37062 ft 409 kts 352°
2026-04-17 06:08 -20.53617 -70.53659 36528 ft 406 kts 352°
2026-04-17 06:08 -20.50789 -70.53647 35984 ft 404 kts 352°
2026-04-17 06:08 -20.47966 -70.53633 35447 ft 402 kts 352°
2026-04-17 06:08 -20.45203 -70.53620 34900 ft 403 kts 353°
2026-04-17 06:09 -20.42394 -70.53606 34345 ft 403 kts 353°
2026-04-17 06:09 -20.39575 -70.53590 33791 ft 404 kts 353°
2026-04-17 06:09 -20.36744 -70.53575 33206 ft 406 kts 353°
2026-04-17 06:09 -20.33900 -70.53559 32600 ft 408 kts 354°
2026-04-17 06:10 -20.31067 -70.53544 32141 ft 405 kts 354°
2026-04-17 06:10 -20.28276 -70.53525 31707 ft 403 kts 354°
2026-04-17 06:10 -20.25475 -70.53509 31216 ft 402 kts 355°
2026-04-17 06:10 -20.22671 -70.53493 30676 ft 403 kts 355°
2026-04-17 06:11 -20.19844 -70.53476 30090 ft 404 kts 355°
2026-04-17 06:11 -20.17029 -70.53459 29509 ft 406 kts 356°
2026-04-17 06:11 -20.14196 -70.53440 28856 ft 409 kts 357°
2026-04-17 06:11 -20.11349 -70.53419 28243 ft 409 kts 357°
2026-04-17 06:12 -20.08499 -70.53397 27711 ft 407 kts 358°
2026-04-17 06:12 -20.05695 -70.53375 27249 ft 403 kts 358°
2026-04-17 06:12 -20.02894 -70.53356 26802 ft 399 kts 358°
2026-04-17 06:12 -20.00125 -70.53370 26382 ft 394 kts 356°
2026-04-17 06:13 -19.97427 -70.53551 25959 ft 390 kts 352°
2026-04-17 06:13 -19.94708 -70.53875 25537 ft 385 kts 352°
2026-04-17 06:13 -19.92074 -70.54207 25137 ft 382 kts 352°
2026-04-17 06:13 -19.89456 -70.54536 24750 ft 378 kts 352°
2026-04-17 06:14 -19.86841 -70.54862 24320 ft 375 kts 352°
2026-04-17 06:14 -19.84296 -70.55177 23932 ft 371 kts 352°
2026-04-17 06:14 -19.81691 -70.55499 23517 ft 369 kts 352°
2026-04-17 06:14 -19.79152 -70.55812 23125 ft 366 kts 353°
2026-04-17 06:15 -19.76637 -70.56123 22733 ft 363 kts 353°
2026-04-17 06:15 -19.74112 -70.56435 22331 ft 361 kts 353°
2026-04-17 06:15 -19.71617 -70.56742 21941 ft 359 kts 353°
2026-04-17 06:15 -19.69140 -70.57046 21545 ft 357 kts 353°
2026-04-17 06:16 -19.66672 -70.57351 21126 ft 356 kts 353°
2026-04-17 06:16 -19.64204 -70.57655 20684 ft 356 kts 353°
2026-04-17 06:16 -19.61771 -70.57956 20304 ft 354 kts 354°
2026-04-17 06:16 -19.59303 -70.58259 19877 ft 353 kts 354°
2026-04-17 06:17 -19.56863 -70.58558 19458 ft 352 kts 354°
2026-04-17 06:17 -19.54458 -70.58853 19049 ft 350 kts 354°
2026-04-17 06:17 -19.52012 -70.59152 18639 ft 349 kts 354°
2026-04-17 06:17 -19.49609 -70.59448 18218 ft 348 kts 354°
2026-04-17 06:18 -19.47186 -70.59747 17793 ft 347 kts 354°
2026-04-17 06:18 -19.44770 -70.59949 17375 ft 346 kts
2026-04-17 06:18 -19.42371 -70.59789 16967 ft 343 kts
2026-04-17 06:18 -19.40002 -70.59302 16573 ft 342 kts 13°
2026-04-17 06:19 -19.37700 -70.58746 16170 ft 340 kts 14°
2026-04-17 06:19 -19.35399 -70.58177 15806 ft 337 kts 14°
2026-04-17 06:19 -19.33108 -70.57615 15450 ft 334 kts 13°
2026-04-17 06:19 -19.30877 -70.57071 15082 ft 331 kts 13°
2026-04-17 06:20 -19.28602 -70.56521 14739 ft 329 kts 13°
2026-04-17 06:20 -19.26403 -70.55991 14372 ft 327 kts 13°
2026-04-17 06:20 -19.24181 -70.55456 14009 ft 324 kts 13°
2026-04-17 06:20 -19.21988 -70.54929 13600 ft 323 kts 13°
2026-04-17 06:21 -19.19786 -70.54400 13185 ft 322 kts 12°
2026-04-17 06:21 -19.17599 -70.53875 12826 ft 321 kts 12°
2026-04-17 06:21 -19.15417 -70.53353 12454 ft 320 kts 12°
2026-04-17 06:21 -19.13251 -70.52833 12108 ft 318 kts 12°
2026-04-17 06:22 -19.11106 -70.52318 11787 ft 315 kts 12°
2026-04-17 06:22 -19.08980 -70.51808 11431 ft 312 kts 12°
2026-04-17 06:22 -19.06859 -70.51299 11082 ft 310 kts 12°
2026-04-17 06:22 -19.04774 -70.50799 10740 ft 308 kts 12°
2026-04-17 06:23 -19.02682 -70.50299 10375 ft 305 kts 12°
2026-04-17 06:23 -19.00617 -70.49806 10034 ft 302 kts 12°
2026-04-17 06:23 -18.98586 -70.49341 9873 ft 290 kts 11°
2026-04-17 06:23 -18.96615 -70.48959 9657 ft 284 kts 10°
2026-04-17 06:24 -18.94682 -70.48592 9350 ft 281 kts 10°
2026-04-17 06:24 -18.92777 -70.48231 9077 ft 279 kts 10°
2026-04-17 06:24 -18.90849 -70.47863 8728 ft 277 kts 10°
2026-04-17 06:24 -18.88950 -70.47501 8408 ft 274 kts 10°
2026-04-17 06:25 -18.87091 -70.47148 8087 ft 272 kts 10°
2026-04-17 06:25 -18.85215 -70.46790 7769 ft 270 kts 10°
2026-04-17 06:25 -18.83370 -70.46438 7466 ft 268 kts 10°
2026-04-17 06:25 -18.81533 -70.46086 7151 ft 266 kts 11°
2026-04-17 06:26 -18.79722 -70.45739 6852 ft 265 kts 11°
2026-04-17 06:26 -18.77902 -70.45390 6557 ft 264 kts 11°
2026-04-17 06:26 -18.76114 -70.45047 6256 ft 263 kts 11°
2026-04-17 06:26 -18.74296 -70.44698 5941 ft 261 kts 11°
2026-04-17 06:27 -18.72508 -70.44355 5642 ft 259 kts 11°
2026-04-17 06:27 -18.70741 -70.44016 5350 ft 258 kts 11°
2026-04-17 06:27 -18.68982 -70.43678 5045 ft 257 kts 11°
2026-04-17 06:27 -18.67237 -70.43343 4753 ft 256 kts 11°
2026-04-17 06:28 -18.65468 -70.43003 4464 ft 255 kts 11°
2026-04-17 06:28 -18.63715 -70.42666 4160 ft 254 kts 11°
2026-04-17 06:28 -18.61985 -70.42333 3872 ft 252 kts 11°
2026-04-17 06:28 -18.60247 -70.41999 3611 ft 249 kts 11°
2026-04-17 06:29 -18.58600 -70.41685 3579 ft 234 kts 11°
2026-04-17 06:29 -18.57034 -70.41394 3557 ft 221 kts
2026-04-17 06:29 -18.55532 -70.41201 3509 ft 211 kts 11°
2026-04-17 06:29 -18.54127 -70.40886 3466 ft 201 kts 17°
2026-04-17 06:30 -18.52787 -70.40456 3446 ft 201 kts 20°
2026-04-17 06:30 -18.51477 -70.39981 3408 ft 193 kts 21°
2026-04-17 06:30 -18.50210 -70.39506 3105 ft 193 kts 21°
2026-04-17 06:30 -18.48959 -70.39037 2831 ft 190 kts 21°
2026-04-17 06:31 -18.47712 -70.38575 2555 ft 187 kts 21°
2026-04-17 06:31 -18.46483 -70.38122 2298 ft 182 kts 21°
2026-04-17 06:31 -18.45297 -70.37687 2061 ft 177 kts 21°
2026-04-17 06:31 -18.44159 -70.37269 1861 ft 170 kts 20°
2026-04-17 06:32 -18.43062 -70.36866 1627 ft 159 kts 20°
2026-04-17 06:32 -18.42065 -70.36500 1405 ft 145 kts 20°
2026-04-17 06:32 -18.41151 -70.36165 1241 ft 136 kts 20°
2026-04-17 06:32 -18.40336 -70.35866 1085 ft 136 kts 20°
2026-04-17 06:33 -18.39448 -70.35541 910 ft 135 kts 20°
2026-04-17 06:33 -18.38550 -70.35212 729 ft 135 kts 19°
2026-04-17 06:33 -18.37653 -70.34900 562 ft 135 kts 18°
2026-04-17 06:33 -18.36769 -70.34576 388 ft 134 kts 18°
2026-04-17 06:34 -18.35877 -70.34249 234 ft 134 kts 18°
2026-04-17 06:34 -18.35033 -70.33939 183 ft 111 kts 18°
2026-04-17 06:34 -18.34524 -70.33754 193 ft 62 kts 19°
2026-04-17 06:34 -18.34184 -70.33628 199 ft 42 kts 19°
2026-04-17 06:35 -18.33997 -70.33560 205 ft 16 kts 21°
2026-04-17 06:35 -18.33950 -70.33501 207 ft 10 kts 98°
2026-04-17 06:35 -18.33978 -70.33436 209 ft 8 kts 128°
2026-04-17 06:35 -18.34031 -70.33406 211 ft 8 kts 169°
2026-04-17 06:36 -18.34096 -70.33415 210 ft 10 kts 199°
2026-04-17 06:36 -18.34116 -70.33422 209 ft 11 kts 199°
2026-04-17 06:36 -18.34123 -70.33425 209 ft 12 kts 200°
2026-04-17 06:36 -18.34216 -70.33459 206 ft 15 kts 199°
2026-04-17 06:37 -18.34323 -70.33499 204 ft 17 kts 199°
2026-04-17 06:37 -18.34441 -70.33544 202 ft 18 kts 200°
2026-04-17 06:37 -18.34564 -70.33587 200 ft 19 kts 199°
2026-04-17 06:37 -18.34693 -70.33635 198 ft 20 kts 199°
2026-04-17 06:38 -18.34831 -70.33684 195 ft 21 kts 199°
2026-04-17 06:38 -18.34914 -70.33713 193 ft 7 kts 181°
2026-04-17 06:38 -18.34942 -70.33677 196 ft 5 kts 109°
2026-04-17 06:38 -18.34952 -70.33646 197 ft 3 kts 109°
2026-04-17 06:39 -18.34953 -70.33645 197 ft 0 kts 110°